Date String (YYYY-MM-DD hh:mm:ss) UTC,Instrument flags,Ambient pressure (hPa),Sample flow (lpm),Bypass flow (lpm),Sample temperature (°C),Ambient temperature (°C),ASC tube jacket temperature (°C),LED temperature (°C),Box temperature (°C),Sample RH (%),Span deviation,Mass concentration (μg/m³),Mass concentration (μg/m³),Mass concentration (μg/m³)
DateTimeUTC,F1_M11,P_M11,Q1_M11,Q2_M11,T1_M11,T2_M11,T3_M11,T4_M11,T5_M11,U1_M11,ZSPAN_M11,X0_M11,X2_M11,X1_M11
2022-08-27 23:00:00,,0821.7,5.02,0.00,29.3,28.3,00.0,37.9,31.3,16.3,0000.0,0010.72,0004.30,0003.79
2022-08-27 23:01:00,,0821.7,4.99,0.00,29.4,27.7,00.0,37.9,31.3,14.7,0000.0,0010.52,0004.29,0003.78
2022-08-27 23:02:00,,0821.8,4.99,0.00,29.3,26.5,00.0,37.9,31.1,15.2,0000.0,0010.74,0004.30,0003.78
2022-08-27 23:03:00,,0821.8,5.01,0.00,29.3,26.3,00.0,37.9,31.1,15.5,0000.0,0010.36,0004.31,0003.77
2022-08-27 23:04:00,,0821.8,5.00,0.00,29.2,26.6,00.0,37.8,31.0,15.4,0000.0,0010.31,0004.28,0003.76
2022-08-27 23:05:00,,0821.7,5.00,0.00,29.2,26.9,00.0,37.8,30.9,15.7,0000.0,0010.02,0004.25,0003.75
2022-08-27 23:06:00,,0821.8,5.00,0.00,29.2,27.2,00.0,37.8,30.9,15.8,0000.0,0009.83,0004.23,0003.74
2022-08-27 23:07:00,,0821.9,5.00,0.00,29.2,27.5,00.0,37.8,31.0,15.9,0000.0,0009.65,0004.21,0003.73
2022-08-27 23:08:00,,0821.8,5.00,0.00,29.2,27.8,00.0,37.8,31.1,15.6,0000.0,0009.44,0004.19,0003.73
2022-08-27 23:09:00,,0821.8,5.01,0.00,29.3,28.0,00.0,37.9,31.2,15.2,0000.0,0008.98,0004.18,0003.74
2022-08-27 23:10:00,,0821.8,5.00,0.00,29.3,28.2,00.0,37.9,31.3,14.9,0000.0,0008.69,0004.19,0003.75
2022-08-27 23:11:00,,0821.5,5.00,0.00,29.4,28.3,00.0,37.9,31.3,15.5,0000.0,0008.72,0004.23,0003.77
2022-08-27 23:12:00,,0821.8,4.99,0.00,29.4,27.4,00.0,37.9,31.3,15.7,0000.0,0008.77,0004.25,0003.78
2022-08-27 23:13:00,,0821.8,5.01,0.00,29.3,26.4,00.0,37.9,31.1,16.0,0000.0,0008.60,0004.25,0003.80
2022-08-27 23:14:00,,0821.8,4.99,0.00,29.3,26.5,00.0,37.9,31.1,16.1,0000.0,0008.58,0004.27,0003.82
2022-08-27 23:15:00,,0821.8,5.00,0.00,29.2,26.8,00.0,37.9,31.0,16.2,0000.0,0008.46,0004.29,0003.85
2022-08-27 23:16:00,,0821.8,5.01,0.00,29.2,27.1,00.0,37.8,31.0,16.4,0000.0,0008.20,0004.30,0003.86
2022-08-27 23:17:00,,0821.8,4.98,0.00,29.2,27.4,00.0,37.8,31.0,16.5,0000.0,0008.30,0004.34,0003.88
2022-08-27 23:18:00,,0821.8,5.00,0.00,29.2,27.7,00.0,37.8,31.1,16.3,0000.0,0008.15,0004.37,0003.90
2022-08-27 23:19:00,,0821.8,5.00,0.00,29.3,27.9,00.0,37.9,31.1,18.2,0000.0,0008.50,0004.38,0003.92
2022-08-27 23:20:00,,0821.8,5.00,0.00,29.3,28.1,00.0,37.9,31.3,17.0,0000.0,0009.32,0004.43,0003.93
2022-08-27 23:21:00,,0821.8,5.00,0.00,29.4,28.3,00.0,37.9,31.3,16.7,0000.0,0009.33,0004.40,0003.92
2022-08-27 23:22:00,,0821.8,4.99,0.00,29.4,28.1,00.0,38.0,31.4,17.2,0000.0,0009.32,0004.38,0003.89
2022-08-27 23:23:00,,0821.7,5.02,0.00,29.4,26.9,00.0,38.0,31.2,18.1,0000.0,0009.29,0004.36,0003.86
2022-08-27 23:24:00,,0821.8,4.99,0.00,29.3,26.3,00.0,37.9,31.1,18.1,0000.0,0010.38,0004.36,0003.84
2022-08-27 23:25:00,,0821.8,5.01,0.00,29.3,26.6,00.0,37.9,31.1,16.8,0000.0,0010.47,0004.32,0003.82
2022-08-27 23:26:00,,0821.7,5.01,0.00,29.2,26.8,00.0,37.9,31.0,17.3,0000.0,0010.54,0004.31,0003.80
2022-08-27 23:27:00,,0821.8,4.99,0.00,29.2,27.2,00.0,37.9,31.0,18.3,0000.0,0010.58,0004.31,0003.78
2022-08-27 23:28:00,,0821.8,5.00,0.00,29.2,27.5,00.0,37.9,31.0,17.4,0000.0,0010.49,0004.27,0003.75
2022-08-27 23:29:00,,0821.8,5.00,0.00,29.3,27.7,00.0,37.9,31.1,17.0,0000.0,0010.91,0004.24,0003.73
2022-08-27 23:30:00,,0821.8,5.00,0.00,29.3,28.0,00.0,37.9,31.2,17.1,0000.0,0009.91,0004.19,0003.70
2022-08-27 23:31:00,,0821.7,5.01,0.00,29.3,28.2,00.0,37.9,31.2,17.0,0000.0,0009.21,0004.15,0003.67
2022-08-27 23:32:00,,0821.7,5.00,0.00,29.4,28.4,00.0,37.9,31.3,16.5,0000.0,0009.82,0004.15,0003.65
2022-08-27 23:33:00,,0821.8,4.99,0.00,29.4,27.8,00.0,38.0,31.3,16.7,0000.0,0009.83,0004.13,0003.65
2022-08-27 23:34:00,,0821.7,5.00,0.00,29.4,26.6,00.0,38.0,31.2,17.1,0000.0,0009.76,0004.10,0003.65
2022-08-27 23:35:00,,0821.7,5.00,0.00,29.3,26.4,00.0,37.9,31.2,16.8,0000.0,0008.48,0004.05,0003.63
2022-08-27 23:36:00,,0821.7,5.00,0.00,29.3,26.7,00.0,37.9,31.1,16.4,0000.0,0008.39,0004.05,0003.61
2022-08-27 23:37:00,,0821.7,5.00,0.00,29.3,27.0,00.0,37.9,31.0,16.8,0000.0,0008.44,0004.05,0003.59
2022-08-27 23:38:00,,0821.7,5.00,0.00,29.3,27.3,00.0,37.9,31.0,16.5,0000.0,0008.38,0004.00,0003.56
2022-08-27 23:39:00,,0821.7,4.99,0.00,29.3,27.6,00.0,37.9,31.1,16.4,0000.0,0008.32,0003.98,0003.54
2022-08-27 23:40:00,,0821.8,5.01,0.00,29.3,27.9,00.0,37.9,31.2,16.1,0000.0,0007.81,0003.93,0003.49
2022-08-27 23:41:00,,0821.8,4.99,0.00,29.3,28.1,00.0,37.9,31.2,15.8,0000.0,0007.69,0003.88,0003.43
2022-08-27 23:42:00,,0821.7,4.99,0.00,29.4,28.3,00.0,38.0,31.3,15.8,0000.0,0007.69,0003.84,0003.38
2022-08-27 23:43:00,,0821.7,5.00,0.00,29.4,28.3,00.0,38.0,31.4,16.0,0000.0,0006.76,0003.81,0003.33
2022-08-27 23:44:00,,0821.8,5.00,0.00,29.5,27.4,00.0,38.0,31.3,15.6,0000.0,0006.66,0003.78,0003.28
2022-08-27 23:45:00,,0821.7,5.00,0.00,29.4,26.4,00.0,38.0,31.2,15.8,0000.0,0006.46,0003.71,0003.23
2022-08-27 23:46:00,,0821.8,5.00,0.00,29.4,26.5,00.0,37.9,31.2,15.9,0000.0,0006.46,0003.67,0003.18
2022-08-27 23:47:00,,0821.8,5.00,0.00,29.3,26.8,00.0,37.9,31.1,15.9,0000.0,0006.16,0003.58,0003.13
2022-08-27 23:48:00,,0821.7,5.00,0.00,29.3,27.1,00.0,37.9,31.0,15.9,0000.0,0005.91,0003.51,0003.05
2022-08-27 23:49:00,,0821.8,4.98,0.00,29.3,27.4,00.0,37.9,31.1,16.0,0000.0,0005.93,0003.48,0002.99
2022-08-27 23:50:00,,0821.8,5.01,0.00,29.3,27.7,00.0,37.9,31.1,16.1,0000.0,0005.85,0003.44,0002.95
2022-08-27 23:51:00,,0821.8,4.99,0.00,29.3,27.9,00.0,37.9,31.2,15.9,0000.0,0006.06,0003.44,0002.93
2022-08-27 23:52:00,,0821.8,5.00,0.00,29.4,28.1,00.0,38.0,31.3,15.6,0000.0,0006.23,0003.43,0002.93
2022-08-27 23:53:00,,0821.8,5.01,0.00,29.4,28.3,00.0,38.0,31.4,15.5,0000.0,0006.08,0003.43,0002.92
2022-08-27 23:54:00,,0821.8,4.99,0.00,29.5,28.2,00.0,38.0,31.4,15.4,0000.0,0005.75,0003.37,0002.90
2022-08-27 23:55:00,,0821.8,5.00,0.00,29.4,27.0,00.0,38.0,31.3,15.8,0000.0,0005.67,0003.34,0002.89
2022-08-27 23:56:00,,0821.8,5.01,0.00,29.4,26.4,00.0,38.0,31.2,15.6,0000.0,0005.91,0003.35,0002.87
2022-08-27 23:57:00,,0821.9,4.99,0.00,29.3,26.6,00.0,38.0,31.1,15.7,0000.0,0005.94,0003.37,0002.87
2022-08-27 23:58:00,,0822.0,4.99,0.00,29.3,26.9,00.0,37.9,31.0,15.8,0000.0,0005.95,0003.38,0002.86
2022-08-27 23:59:00,,0822.2,5.00,0.00,29.3,27.2,00.0,37.9,31.0,15.5,0000.0,0005.75,0003.36,0002.86
